Location: Claflin County Park
(44.8478°N, 87.5507°W)
Time: 05:14:09
(UTC+00:00)

Daily predictions for brighter satellites

Satellite Brightness Start Highest point End
(mag) Time Altitude Azimuth Time Altitude Azimuth Time Altitude Azimuth
Lacrosse 5 rocket 3.4 00:02:13 10° NW 00:04:03 13° N 00:04:20 13° N
COSMO-SKYMED 1 2.4 00:04:34 50° ENE 00:05:12 56° E 00:09:15 10° S
NOSS 2-3 (E) 3.0 00:02:26 10° SW 00:06:06 87° SE 00:06:40 62° NE
Cosmos 2263 Rocket 2.2 00:01:18 10° NNW 00:06:54 56° ENE 00:10:29 22° SE
NOSS 2-3 (D) 3.0 00:04:11 10° SW 00:07:53 83° SE 00:08:20 67° NE
Resurs 1-3 3.4 00:03:57 10° SSE 00:08:12 65° ENE 00:12:28 10° N
Cosmos 1461 4.1 00:05:36 10° WSW 00:09:10 34° NW 00:10:53 23° N
Cosmos 1538 Rocket 3.9 00:09:36 10° NNW 00:14:52 64° ENE 00:18:33 20° SE
Cosmos 1553 Rocket 4.0 00:12:56 10° SSE 00:18:48 51° E 00:21:03 35° NE
Cosmos 2227 Rocket 2.4 00:14:31 10° NNW 00:20:08 70° WSW 00:25:44 10° SSE
Cosmos 1726 Rocket 4.4 00:19:01 10° SSW 00:23:33 53° WNW 00:27:43 12° N
NOSS 3-2 (C) 4.3 00:24:58 10° WSW 00:29:45 37° NW 00:32:42 23° NNE
Meteor 2-2 Rocket 4.1 00:24:58 10° S 00:30:36 72° E 00:32:13 47° NNE
SKYMED 2 4.3 00:28:27 21° N 00:31:09 50° WNW 00:35:21 10° SSW
SL-19 R/B 4.1 00:26:16 10° SSE 00:31:36 87° WSW 00:37:14 10° NNW
Cosmos 1697 Rocket 3.6 00:28:51 10° SW 00:34:11 44° WNW 00:37:41 20° N
Spot 4 Rocket 4.3 00:29:48 10° S 00:34:52 68° WSW 00:39:59 10° NNW
YAOGAN 1 3.0 00:32:03 10° S 00:36:14 61° W 00:40:28 10° NNW
Cosmos 1244 Rocket 4.4 00:35:31 10° N 00:41:51 87° E 00:48:03 10° S
IRAS Rocket 4.4 00:37:58 10° S 00:43:26 72° WSW 00:48:56 10° NNW
Cosmos 1898 Rocket 3.4 00:39:33 10° SSW 00:44:15 74° S 00:44:15 74° S
Cosmos-2242 3.9 00:47:26 10° SSW 00:50:38 45° SW 00:50:38 45° SW
Gbstr 26 Del rocket 4.3 00:48:20 10° W 00:50:47 31° WNW 00:50:47 31° WNW
BREEZE-M DEB (TANK) 3.8 00:51:06 10° WNW 00:55:22 88° SSW 00:58:34 46° ESE
SL-08 R/B 4.5 00:53:15 10° N 00:59:36 83° W 01:05:56 10° S
Cosmos 2082 4.3 01:00:40 10° NNW 01:04:38 47° NNW 01:04:38 47° NNW
Aureole 1 Rocket 4.3 01:05:13 10° SW 01:09:04 42° WNW 01:09:04 42° WNW
USA 238 DEB 4.2 01:23:51 10° WSW 01:29:47 48° NW 01:29:48 48° NW
USA 238 4.2 01:23:56 10° WSW 01:29:52 48° NW 01:29:52 48° NW
USA 215 4.1 01:32:12 41° NNW 01:32:12 41° NNW 01:36:40 10° NW
Cosmos 2219 4.2 01:25:00 10° NW 01:29:28 44° WNW 01:29:28 44° WNW
Cosmos 1980 Rocket 3.6 01:31:59 10° WSW 01:36:57 33° NW 01:36:57 33° NW
Cosmos 2263 Rocket 4.2 01:46:00 10° NW 01:50:22 23° WSW 01:52:20 19° SW
CZ-3 R/B 4.4 09:25:11 42° SSW 09:25:43 42° SSW 09:37:07 10° SE
Aureole 1 Rocket 4.5 09:54:50 69° NE 09:55:04 69° ENE 10:02:31 10° SSE
COSMOS 2406 4.3 10:01:53 33° SE 10:03:31 41° ESE 10:08:47 10° NE
SL-16 R/B 3.7 10:06:41 28° NNE 10:08:10 32° NE 10:13:12 10° ESE
Cosmos 2082 Rocket 3.3 10:10:40 36° NNE 10:10:40 36° NNE 10:13:52 10° NNE
USA 59 Rocket 2.0 10:11:24 26° SE 10:11:24 26° SE 10:13:44 10° SE
Cosmos 1980 Rocket 4.0 10:32:10 18° S 10:32:10 18° S 10:33:36 10° S
Cosmos 2180 Rocket 4.4 10:33:48 73° WSW 10:33:48 73° WSW 10:39:49 10° S
USA 234 4.2 10:31:44 10° NE 10:37:21 32° N 10:37:58 31° NNW
Cosmos 2369 3.8 10:39:09 58° SSW 10:39:09 58° SSW 10:43:52 10° SSE
FengYun 1-2 T 4.3 10:33:08 10° NNE 10:38:48 78° ESE 10:44:27 10° S
NOSS 2-1 (C) 4.4 10:40:19 43° SSE 10:40:19 43° SSE 10:43:45 10° SSE
Cosmos 841 Rocket 3.4 10:40:49 77° N 10:40:49 77° N 10:45:43 10° NNE
SJ-11-01 4.3 10:35:55 10° NNE 10:40:38 76° ESE 10:45:18 10° S
BREEZE-M DEB (TANK) 4.2 10:44:56 52° WSW 10:45:41 55° SW 10:49:35 10° SE
Cosmos 1892 Rocket 4.0 10:45:57 10° S 10:50:14 60° E 10:54:35 10° NNE
Cosmos-2242 4.5 10:49:33 13° NNE 10:52:58 35° ENE 10:56:49 10° SE
COSMO-SKYMED 1 3.3 10:51:48 10° SE 10:55:45 48° ENE 10:57:58 23° N
COSMOS 2455 3.0 10:59:43 49° WSW 10:59:59 49° WSW 11:05:44 10° S
Cosmos 2360 Rocket 3.3 10:56:30 16° N 11:00:41 40° NE 11:05:57 10° SE
Cosmos 2333 Rocket 2.7 10:59:10 22° NNW 11:02:54 60° ENE 11:08:34 10° SE
NOSS 3-1 (C) 4.0 11:01:55 35° NW 11:05:29 72° WSW 11:14:26 10° SSE
Cosmos 1898 Rocket 3.9 11:10:27 42° WSW 11:10:27 42° WSW 11:15:03 10° S
Cosmos 1484 Rocket 4.4 11:09:04 10° NNE 11:12:08 30° E 11:15:08 10° SSE
Cosmos 489 Rocket 4.5 11:06:46 13° SW 11:12:22 57° WNW 11:18:33 10° NNE
Cosmos 1092 Rocket 4.1 11:06:55 10° S 11:13:11 79° E 11:19:26 10° N
Cosmos 1428 Rocket 4.4 11:08:32 10° SSW 11:14:41 62° WNW 11:20:55 10° N
Nadezhda 4 Rocket 4.1 11:09:32 10° SSW 11:15:39 51° WNW 11:21:46 10° N
IRS-1D 3.3 11:11:00 10° N 11:16:00 73° WNW 11:21:05 10° SSW
SL-24 R/B 4.3 11:11:48 10° N 11:17:09 81° WNW 11:21:44 10° SSW
Cosmos 2219 Rocket 3.6 11:12:48 10° N 11:17:57 34° NE 11:23:02 10° ESE
Cosmos 2322 Rocket 2.5 11:19:41 15° NNW 11:24:25 67° ENE 11:30:02 10° SE
Cosmos 2058 Rocket 3.0 11:23:27 13° N 11:27:27 89° WSW 11:31:50 10° S
SKYMED 2 3.7 11:23:23 10° S 11:27:36 51° W 11:29:04 35° NW
Helios 1A Rocket 2.2 11:25:45 10° S 11:29:05 79° WSW 11:30:06 42° NNW
ATLAS 3B R/B 4.3 11:23:21 12° NNW 11:29:31 29° NNE 11:36:02 10° E
Cosmos 2195 Rocket 4.5 11:23:57 10° SSW 11:30:07 59° WNW 11:36:23 10° N
Okean 1 3.1 11:28:27 19° N 11:30:56 77° E 11:34:29 10° SSE
Cosmos 1937 Rocket 3.9 11:29:56 34° WNW 11:30:58 38° WSW 11:35:40 10° S
Meteor 2-20 4.4 11:26:46 10° NNW 11:32:50 66° W 11:38:48 10° S
Meteor 2-3 Rocket 4.0 11:36:55 10° SW 11:42:22 44° WNW 11:47:47 10° N
CZ-4 R/B 4.0 11:39:42 10° N 11:44:05 43° WNW 11:48:25 10° SW
SL-4 R/B 2.1 11:43:26 30° NNW 11:44:30 43° NNE 11:47:33 10° E
Meteor 1-26 Rocket 4.2 11:40:14 10° NNW 11:45:45 65° W 11:51:23 10° S
COSMOS 2406 3.8 11:44:05 17° WSW 11:47:51 34° NW 11:53:00 10° N
IRIDIUM 104 4.4 11:46:50 10° S 11:52:02 84° E 11:57:18 10° N
SL-16 R/B 2.5 11:48:33 18° NW 11:52:23 44° WSW 11:57:43 10° S
Cosmos 405 Rocket 2.2 11:49:26 10° S 11:52:41 87° E 11:55:58 10° N
Cosmos 2082 Rocket 3.4 11:52:33 19° NW 11:53:01 19° NW 11:57:00 10° N
Cosmos 2151 4.1 11:50:52 10° SSE 11:54:45 44° E 11:58:40 10° NNE
